Regional Weather Roundup
Issued by NWS Boston, MA

Home | Current Version | Previous Version | Text Only | Print | Product List | Glossary On
Versions: 1 2 3 4 5 6 7 8 9 10 11 12 13 14 15 16 17 18 19 20 21 22 23 24 25 26 27 28 29 30 31 32 33 34 35 36 37 38 39 40 41 42 43 44 45 46 47 48 49 50
000
ASUS41 KBOX 290510
RWRBOX

REGIONAL WEATHER ROUNDUP
NATIONAL WEATHER SERVICE TAUNTON MA
100 AM EDT FRI MAY 29 2015

NOTE:  "FAIR" INDICATES FEW OR NO CLOUDS BELOW 12,000 FEET WITH NO
SIGNIFICANT WEATHER AND/OR OBSTRUCTIONS TO VISIBILITY.  THE FOLLOWING
OBSERVATION LOCATIONS DO NOT REPORT PRESENT WEATHER...PROVINCETOWN...
SMITHFIELD...BLOCK ISLAND...KEENE...AND OXFORD.

MAZALL-290600-
EASTERN MASSACHUSETTS

CITY           SKY/WX    TMP DP  RH WIND       PRES   REMARKS
BOSTON         PTCLDY    68  54  60 NW9       30.22R
BEVERLY        CLEAR     61  54  77 W6        30.21R
LAWRENCE       CLEAR     62  55  77 CALM      30.24R
BEDFORD        CLEAR     59  58  96 W3        30.22R
BLUE HILL        N/A     63  55  75 NW12      30.22S
NORWOOD        PTCLDY    59  55  87 N3        30.22S
MARSHFIELD     PTCLDY    63  59  88 CALM      30.22F
PLYMOUTH       PTCLDY    59  59 100 CALM      30.22S FOG
TAUNTON        FOG       57  56  96 CALM      30.21S VSB 1/4
NEW BEDFORD    PTCLDY    60  58  92 CALM      30.21S
$$

MAZALL-290600-
CAPE COD AND THE ISLANDS

CITY           SKY/WX    TMP DP  RH WIND       PRES   REMARKS
FALMOUTH       MOCLDY    59  59 100 CALM      30.22S
HYANNIS        CLOUDY    60  59  96 SW6       30.21R
CHATHAM        CLOUDY    60  59  96 W5        30.22S
PROVINCETOWN   MOCLDY    61  52  72 W6        30.21S
NANTUCKET      CLOUDY    61  57  87 SW8       30.23S
MARTHAS VNYRD  CLOUDY    60  58  92 SW6       30.22S
$$

MAZALL-290600-
CENTRAL AND WESTERN MASSACHUSETTS

CITY           SKY/WX    TMP DP  RH WIND       PRES   REMARKS
WORCESTER      CLEAR     59  53  80 NW8       30.25S
FITCHBURG      CLEAR     59  55  87 CALM      30.25R
ORANGE         CLEAR     55  54  96 CALM      30.25S
SPRINGFIELD    CLEAR     55  53  93 E1        30.24S
WESTFIELD      CLEAR     58  53  84 CALM      30.25R
NORTH ADAMS    CLEAR     54  52  93 CALM      30.28R
PITTSFIELD     CLEAR     60  52  74 VRB7      30.27S
$$

RIZALL-290600-
RHODE ISLAND

CITY           SKY/WX    TMP DP  RH WIND       PRES   REMARKS
PROVIDENCE     PTCLDY    68  56  65 N5        30.23R
NEWPORT        PTCLDY    57  55  93 CALM      30.22S FOG
BLOCK ISLAND   CLOUDY    59  55  88 W8        30.23S
SMITHFIELD     CLEAR    N/A N/A N/A NW5       30.23R
WESTERLY       PTCLDY    58  56  93 CALM      30.23S
$$

CTZALL-290600-
CONNECTICUT

CITY           SKY/WX    TMP DP  RH WIND       PRES   REMARKS
BRADLEY INTL   PTCLDY    60  55  83 NW3       30.24S
HARTFORD       PTCLDY    66  53  63 VRB6      30.24S
BRIDGEPORT     PTCLDY    67  56  67 N5        30.24S
DANBURY        PTCLDY    58  52  80 CALM      30.27S
GROTON         PTCLDY    59  57  93 CALM      30.22S FOG
NEW HAVEN      PTCLDY    66  54  65 NW5       30.23S
CHESTER        NOT AVBL
MERIDEN        PTCLDY    63  55  75 CALM      30.24S
WILLIMANTIC    CLEAR     62  55  77 N3        30.24S
OXFORD         PTCLDY    57  50  77 N3        30.29R
$$

MEZ002-015-021-024-NHZ003-005-008-011-012-014-VTZ005-008-290600-
NORTHERN NEW ENGLAND

CITY           SKY/WX    TMP DP  RH WIND       PRES   REMARKS
PORTLAND ME    CLEAR     64  59  83 W5        30.19R
BANGOR ME      MOCLDY    64  62  93 N10       30.17R
CONCORD NH     CLEAR     62  54  74 NW6       30.23R
MANCHESTER NH  CLEAR     66  54  65 W3        30.21R
NASHUA NH      CLEAR     60  57  89 CALM      30.24R
PORTSMOUTH NH  PTCLDY    64  55  74 W5        30.19R
JAFFREY NH     CLEAR     60  54  80 CALM      30.25S
KEENE NH       CLEAR     55  54  94 CALM      30.25F
BURLINGTON VT  MOCLDY    61  58  90 CALM      30.27F
MT. WASHINGTON FOG       45  45 100 NW29G37     N/A  VSB 0
$$

NYZ052-076-290600-
EASTERN NEW YORK

CITY           SKY/WX    TMP DP  RH WIND       PRES   REMARKS
ALBANY         PTCLDY    61  53  75 N5        30.28S
NEW YORK CITY  PTCLDY    69  54  58 NE9       30.24R
$$

ANZALL-290600-
MARINE OBSERVATIONS

STATION/POSITION TIME  TEMP    WIND        PRES    VSBY  WAVE
                       AIR SEA DIR/SP/G                  HT/PER
                 (UTC) (F)     (DEG/KT/KT) (MB)    (MI)  (FT/S)
BOSTON BUOY      0450   59 53  290/  8/ 10   N/A           1/ 8
BUZZARDS BAY     0400          210/  9/  9   N/A
NANTUCKET SOUND  0450   61 60  240/ 12/ 14   N/A           1/ 3
MASS BAY-STELLWA 0404   57 50  280/  8/ 10   N/A    1 7/8  2/ 5
ISLE OF SHOALS   0400   64     300/  7/  9   N/A
S OF BLOCK IS    0408      55                N/A           3/ 5
$$

......................KEY.........................
  SKY/WX - SKY CONDITION/PRESENT WEATHER
  TMP    - TEMPERATURE IN FAHRENHEIT
  DWPT   - DEWPOINT IN FAHRENHEIT
  RH     - RELATIVE HUMIDITY IN PERCENT
  WIND   - DIRECTION AND SPEED IN MPH
  PRES   - MEAN SEA LEVEL PRESSURE IN INCHES OF HG
  WCI    - WIND CHILL INDEX
  VSB    - VISIBILITY IN MILES
  HX     - HEAT INDEX
  TC     - TEMPERATURE IN CELSIUS
  VRB    - VARIABLE WIND DIRECTION
  N/A    - NOT AVAILABLE


USA.gov is the U.S. government's official web portal to all federal, state and local government web resources and services.